Вернуться в каталог

MIDAS 5 DEB

АктивенPO
NORAD 273·DEBRIS·🇺🇸 United States

Запущен Apr 9, 1962 с Vandenberg Space Force Base

Loading…

Ближайшие Пролёты (ближайшие 24 часа)

TLE

СвежийSource: Space-Track

Эпоха: Sep 14, 2026, 01:51 UTC

1 00273U 62010C   26257.07733870  .00000003  00000-0 -56390-3 0  9998
2 00273  86.6428 283.9628 0329636 109.5635 254.1170  9.43836301219676

Отслеживайте MIDAS 5 DEB в реальном времени с AllMySat

Download on the App Store